Weather reports worldwide

Advertisment
Jerez De La Frontera aeropuert, Spain (8451): temperature & dewpoint: 28.06.2020 17:00:00 - 04.07.2020 17:00:00 (CEST)Jerez De La Frontera aeropuert, Spain (8451): wind speed: 28.06.2020 17:00:00 - 04.07.2020 17:00:00 (CEST)Jerez De La Frontera aeropuert, Spain (8451): wind direction: 28.06.2020 17:00:00 - 04.07.2020 17:00:00 (CEST)Jerez De La Frontera aeropuert, Spain (8451): reduced air pressure: 28.06.2020 17:00:00 - 04.07.2020 17:00:00 (CEST)Jerez De La Frontera aeropuert, Spain (8451): visibility: 28.06.2020 17:00:00 - 04.07.2020 17:00:00 (CEST)
Date & Time tt [°C] td [°C] ff [km/h] ff [kn] dd ppp [hPa] vv [km]
04.07.2020 17:00:00 36,0 17,0 9 5 - - 10
04.07.2020 16:00:00 35,4 18,6 8 4 WSW 1017,4 10
04.07.2020 15:00:00 33,8 18,0 5 3 - 1018,1 10
04.07.2020 14:00:00 33,3 17,5 4 2 - 1019,1 10
04.07.2020 13:00:00 31,3 17,0 4 2 - 1019,5 10
04.07.2020 12:00:00 29,0 16,1 2 1 - 1019,8 10
04.07.2020 11:00:00 27,0 16,3 2 1 - 1019,7 10
04.07.2020 10:00:00 24,6 16,0 2 1 - 1019,6 10
04.07.2020 09:00:00 20,4 15,2 2 1 - 1019,0 10
04.07.2020 08:00:00 16,6 14,7 0 0 N 1018,9 10
04.07.2020 07:00:00 15,2 13,7 0 0 N 1018,6 10
04.07.2020 06:00:00 15,0 13,5 4 2 - 1018,1 10
04.07.2020 05:00:00 14,7 13,3 5 3 NNE 1018,3 10
04.07.2020 04:00:00 16,0 13,6 8 4 E 1018,6 10
04.07.2020 03:00:00 15,5 14,0 2 1 - 1018,9 10
04.07.2020 02:00:00 16,2 14,4 4 2 E 1019,4 10
04.07.2020 01:00:00 17,5 15,1 4 2 S 1019,3 10
04.07.2020 00:00:00 19,3 15,9 5 3 SSW 1018,8 10
03.07.2020 23:00:00 20,8 16,0 5 3 SSW 1018,4 10
03.07.2020 22:00:00 23,3 14,2 11 6 SSW 1017,5 10
03.07.2020 21:00:00 27,3 12,9 11 6 SW 1017,1 10
03.07.2020 20:00:00 30,0 9,9 13 7 WSW 1017,0 10
03.07.2020 19:00:00 30,8 10,1 15 8 WSW 1016,9 10
03.07.2020 18:00:00 32,1 9,7 13 7 SW 1016,9 10
03.07.2020 17:00:00 32,8 7,6 15 8 WSW 1017,2 10
03.07.2020 16:00:00 32,0 8,4 15 8 SW 1017,5 10
03.07.2020 15:00:00 31,9 9,5 15 8 SW 1017,8 10
03.07.2020 14:00:00 30,7 13,9 11 6 S 1018,1 10
03.07.2020 13:00:00 30,3 8,2 9 5 SW 1018,3 10
03.07.2020 12:00:00 27,3 11,7 5 3 SSW 1018,5 10
03.07.2020 11:00:00 24,6 11,4 4 2 - 1018,6 10
03.07.2020 10:00:00 22,0 11,2 5 3 NW 1018,6 10
03.07.2020 09:00:00 19,4 10,7 11 6 NW 1018,1 10
03.07.2020 08:00:00 16,2 13,8 0 0 N 1018,1 10
03.07.2020 07:00:00 14,7 13,1 0 0 N 1017,6 10
03.07.2020 06:00:00 15,2 13,8 2 1 ESE 1017,5 10
03.07.2020 05:00:00 15,7 14,1 2 1 - 1017,6 10
03.07.2020 04:00:00 16,7 14,8 0 0 N 1017,7 10
03.07.2020 03:00:00 18,7 16,3 5 3 S 1018,0 10
03.07.2020 02:00:00 19,2 16,4 4 2 - 1017,9 10
03.07.2020 01:00:00 20,4 16,0 4 2 - 1018,0 10
03.07.2020 00:00:00 21,7 16,1 5 3 - 1017,2 10
02.07.2020 23:00:00 23,3 15,6 9 5 SW 1016,5 10
02.07.2020 22:00:00 25,2 15,8 8 4 SSW 1016,0 10
02.07.2020 21:00:00 28,5 15,4 16 9 WSW 1015,7 10
02.07.2020 20:00:00 30,8 15,2 22 12 W 1015,1 10
02.07.2020 19:00:00 31,7 15,0 24 13 W 1015,3 10
02.07.2020 18:00:00 33,3 13,4 24 13 W 1015,5 10
02.07.2020 17:00:00 34,3 12,0 18 10 W 1015,6 10
02.07.2020 16:00:00 33,7 12,7 18 10 WSW 1016,2 10
02.07.2020 15:00:00 34,2 11,2 13 7 W 1016,3 10
02.07.2020 14:00:00 33,3 16,1 13 7 SW 1016,7 10
02.07.2020 13:00:00 30,8 20,1 8 4 S 1016,9 10
02.07.2020 12:00:00 28,2 20,4 4 2 - 1017,0 10
02.07.2020 11:00:00 25,0 20,5 5 3 SSE 1017,1 7
02.07.2020 10:00:00 21,6 19,8 8 4 SE 1017,0 5
02.07.2020 09:00:00 19,6 19,4 8 4 S 1016,7 0,8
02.07.2020 08:00:00 19,2 19,2 8 4 S 1016,1 0,3
02.07.2020 07:00:00 18,8 18,6 5 3 SE 1015,6 0,6
02.07.2020 06:00:00 18,3 18,0 8 4 S 1015,3 8
02.07.2020 05:00:00 18,3 17,7 8 4 S 1015,0 8
02.07.2020 04:00:00 18,6 17,4 5 3 S 1015,2 10
02.07.2020 03:00:00 19,3 18,0 8 4 SSE 1015,3 10
02.07.2020 02:00:00 19,3 17,5 5 3 SSE 1015,4 10
02.07.2020 01:00:00 19,8 17,9 8 4 S 1015,3 10
02.07.2020 00:00:00 20,5 18,4 4 2 - 1015,2 10
01.07.2020 23:00:00 21,9 18,7 11 6 WSW 1014,6 10
01.07.2020 22:00:00 23,9 17,9 9 5 W 1014,0 10
01.07.2020 21:00:00 27,1 17,0 13 7 WSW 1013,7 10
01.07.2020 20:00:00 30,4 14,9 13 7 W 1013,5 10
01.07.2020 19:00:00 31,8 13,0 15 8 SW 1013,7 10
01.07.2020 18:00:00 31,9 12,6 15 8 SW 1014,1 10
01.07.2020 17:00:00 31,1 16,3 15 8 SW 1014,4 10
01.07.2020 16:00:00 31,2 17,0 15 8 SW 1014,5 10
01.07.2020 15:00:00 30,5 16,8 9 5 SSW 1014,6 10
01.07.2020 14:00:00 29,1 17,3 9 5 SSW 1015,2 10
01.07.2020 13:00:00 27,1 17,8 11 6 S 1015,6 10
01.07.2020 12:00:00 26,1 17,9 13 7 SW 1015,9 10
01.07.2020 11:00:00 24,7 18,3 11 6 SSW 1015,7 10
01.07.2020 10:00:00 22,7 18,1 9 5 S 1015,5 10
01.07.2020 09:00:00 20,7 17,9 11 6 S 1015,3 10
01.07.2020 08:00:00 20,0 18,1 8 4 SSE 1014,9 10
01.07.2020 07:00:00 19,9 18,4 9 5 SSE 1014,4 10
01.07.2020 06:00:00 20,0 18,7 11 6 S 1013,9 9
01.07.2020 05:00:00 20,0 18,8 11 6 S 1013,8 7
01.07.2020 04:00:00 20,2 19,2 9 5 SSE 1013,8 9
01.07.2020 03:00:00 19,8 18,9 9 5 SSE 1014,1 9
01.07.2020 02:00:00 20,3 19,5 11 6 S 1014,4 8
01.07.2020 01:00:00 20,6 19,9 11 6 S 1014,4 10
01.07.2020 00:00:00 21,1 19,7 9 5 S 1014,1 10
30.06.2020 23:00:00 21,9 19,3 9 5 S 1013,2 10
30.06.2020 22:00:00 23,8 16,8 11 6 SSW 1012,4 10
30.06.2020 21:00:00 27,1 14,6 18 10 SSW 1011,8 10
30.06.2020 20:00:00 28,1 14,7 26 14 SSW 1011,6 10
30.06.2020 19:00:00 29,4 16,2 29 16 SW 1011,5 10
30.06.2020 18:00:00 29,9 16,7 34 18 SSW 1011,7 10
30.06.2020 17:00:00 31,2 19,5 26 14 SSW 1011,6 10
30.06.2020 16:00:00 32,2 20,3 22 12 SW 1011,9 10
30.06.2020 15:00:00 32,3 20,2 21 11 SW 1012,2 10
30.06.2020 14:00:00 32,8 19,6 15 8 SSW 1012,6 10
30.06.2020 13:00:00 32,2 18,3 11 6 SW 1012,6 10
30.06.2020 12:00:00 30,2 16,6 8 4 S 1012,8 10
30.06.2020 11:00:00 27,5 14,6 8 4 SSW 1012,8 10
30.06.2020 10:00:00 25,6 13,7 5 3 SSE 1012,5 10
30.06.2020 09:00:00 21,5 14,9 2 1 - 1012,2 10
30.06.2020 08:00:00 17,0 14,1 0 0 N 1012,2 10
30.06.2020 07:00:00 16,4 13,7 0 0 N 1011,8 10
30.06.2020 06:00:00 17,0 13,8 4 2 - 1011,3 10
30.06.2020 05:00:00 17,0 13,5 5 3 N 1011,4 10
30.06.2020 04:00:00 17,6 14,7 5 3 N 1011,5 10
30.06.2020 03:00:00 18,4 15,1 4 2 N 1012,2 10
30.06.2020 02:00:00 19,4 15,1 4 2 - 1012,5 10
30.06.2020 01:00:00 21,1 14,4 4 2 SSE 1012,9 10
30.06.2020 00:00:00 22,6 16,2 2 1 - 1012,6 10
29.06.2020 23:00:00 24,9 15,2 9 5 SW 1012,4 10
29.06.2020 22:00:00 27,1 13,8 9 5 WSW 1011,8 10
29.06.2020 21:00:00 29,7 14,3 11 6 WNW 1011,6 10
29.06.2020 20:00:00 32,3 14,4 15 8 W 1011,6 10
29.06.2020 19:00:00 34,1 15,2 16 9 W 1011,4 10
29.06.2020 18:00:00 35,5 16,4 16 9 W 1011,8 10
29.06.2020 17:00:00 37,3 15,2 9 5 SSE 1012,1 10
29.06.2020 16:00:00 37,2 14,4 8 4 - 1012,6 10
29.06.2020 15:00:00 35,7 16,0 4 2 - 1013,4 10
29.06.2020 14:00:00 34,1 16,3 4 2 - 1014,4 10
29.06.2020 13:00:00 32,3 15,8 5 3 - 1015,0 10
29.06.2020 12:00:00 30,2 14,8 5 3 - 1015,3 10
29.06.2020 11:00:00 28,3 14,9 8 4 S 1015,2 10
29.06.2020 10:00:00 26,1 15,0 9 5 SSW 1015,4 10
29.06.2020 09:00:00 22,9 16,6 2 1 - 1015,3 10
29.06.2020 08:00:00 19,2 15,7 0 0 N 1015,0 10
29.06.2020 07:00:00 17,6 14,9 5 3 ENE 1014,6 10
29.06.2020 06:00:00 18,4 15,3 4 2 - 1014,2 10
29.06.2020 05:00:00 18,8 15,7 8 4 ESE 1014,5 10
29.06.2020 04:00:00 18,8 16,8 0 0 N 1015,0 10
29.06.2020 03:00:00 20,7 16,8 4 2 SSW 1015,3 10
29.06.2020 02:00:00 21,2 17,4 5 3 S 1015,8 10
29.06.2020 01:00:00 21,4 17,8 5 3 SSW 1015,8 10
29.06.2020 00:00:00 23,0 16,8 5 3 S 1015,6 10
28.06.2020 23:00:00 24,8 16,8 8 4 WSW 1015,3 10
28.06.2020 22:00:00 26,5 16,6 9 5 WSW 1014,7 10
28.06.2020 21:00:00 29,9 16,0 13 7 W 1014,3 10
28.06.2020 20:00:00 32,6 15,6 15 8 W 1014,0 10
28.06.2020 19:00:00 34,0 16,4 15 8 W 1014,1 10
28.06.2020 18:00:00 34,8 18,0 16 9 W 1014,4 10
28.06.2020 17:00:00 35,2 20,1 15 8 WSW 1014,7 10

tt = temperature
td = dewpoint
ff = wind speed
dd = wind direction
ppp = reduced air pressure
vv = visibility

Next stations